Regional Weather Roundup
Issued by NWS

Home | Current Version | Previous Version | Text Only | Print | Product List | Glossary Off
Versions: 1 2 3 4 5 6 7 8 9 10 11 12 13 14 15 16 17 18 19 20 21 22 23 24 25 26 27 28

000
ASUS45 KBOI 231110
RWRID
WEATHER ROUNDUP FOR IDAHO
NATIONAL WEATHER SERVICE BOISE ID
500 AM MDT WED APR 23 2014

NOTE: "FAIR" INDICATES FEW OR NO CLOUDS BELOW 12000 FEET
WITH NO SIGNIFICANT WEATHER AND/OR OBSTRUCTIONS TO VISIBILITY

IDZ012-014-231200-
SOUTHWEST IDAHO


CITY           SKY/WX    TMP DP  RH WIND       PRES   REMARKS
BOISE          PTCLDY    34  27  75 CALM      29.97R
CALDWELL       PTCLDY    36  21  55 CALM      29.99S
MOUNTAIN HOME  PTCLDY    33  32  97 NW8       29.96R WCI  26
$$

IDZ016-017-231200-
SOUTHCENTRAL IDAHO


CITY           SKY/WX    TMP DP  RH WIND       PRES   REMARKS
BURLEY         CLEAR     35  27  72 W16G28    29.89R WCI  25
JEROME         PTCLDY    33  28  81 SW16      29.91R WCI  23
TWIN FALLS     PTCLDY    35  27  72 SW15      29.92S WCI  25
$$

IDZ019>023-231200-
SOUTHEAST IDAHO


CITY           SKY/WX    TMP DP  RH WIND       PRES   REMARKS
IDAHO FALLS    CLOUDY    35  30  82 SW24G35   29.80R WCI  23
POCATELLO      CLEAR     35  27  72 SW15G28   29.87R WCI  25
REXBURG        FLURRIES  33  31  92 SW16G24   29.78R WCI  23
$$

IDZ006-010-011-018-031-032-231200-
CENTRAL IDAHO MOUNTAINS


CITY           SKY/WX    TMP DP  RH WIND       PRES   REMARKS
MCCALL         PTCLDY    23  20  88 CALM      29.89R
HAILEY         CLEAR     34  12  40 NW16G28   29.83R WCI  23
STANLEY          N/A     17  14  88 S5        29.87S WCI  10
SALMON         CLOUDY    37  19  48 CALM      29.83R
CHALLIS        MOCLDY    32  16  51 W12       29.85R WCI  23
$$

IDZ002-004-006-007-026-231200-
NORTHERN IDAHO


CITY           SKY/WX    TMP DP  RH WIND       PRES   REMARKS
LEWISTON       PTCLDY    41  27  57 CALM      29.90S
LOWELL         NOT AVBL
COEUR D`ALENE  CLEAR     34  30  86 CALM      29.86R
MULLAN PASS    CLOUDY    25  21  86 VRB7      29.76R WCI  17
$$



USA.gov is the U.S. government's official web portal to all federal, state and local government web resources and services.